Weather History for Alamosa, CO

Change the Weather History Date:

Thursday, July 18, 2013

  Actual Average Record
Temperature  
Mean Temperature 67 °F 65 °F  
Max Temperature 86 °F 83 °F 92 °F (1989)
Min Temperature 47 °F 48 °F 38 °F (1987)
Degree Days  
Heating Degree Days 0 1  
Month to date heating degree days 18 27  
Since 1 June heating degree days 120 195  
Since 1 July heating degree days 18 27  
Cooling Degree Days 2 1  
Month to date cooling degree days 27 18  
Year to date cooling degree days 43 24  
Since 1 June cooling degree days 43 24  
Growing Degree Days 8 (Base 50)    
Moisture  
Dew Point 49 °F    
Average Humidity 59    
Maximum Humidity 93    
Minimum Humidity 25    
Precipitation  
Precipitation 0.07 in 0.04 in 1.56 in (1971)
Month to date precipitation 0.34 0.53  
Year to date precipitation 1.95 3.24  
Snow  
Snow 0.00 in 0.00 in 0.00 in (2002)
Month to date snowfall 0.0 0.0  
Since 1 June snowfall 0.0 0.0  
Since 1 July snowfall 0.0 0.0  
Snow Depth 0.00 in    
Sea Level Pressure  
Sea Level Pressure 30.12 in    
Wind  
Wind Speed 6 mph (ENE)    
Max Wind Speed 28 mph    
Max Gust Speed 33 mph    
Visibility 10 miles    
Events Rain , Thunderstorm    
T = Trace of Precipitation, MM = Missing Value Source: NWS Daily Summary

Daily Weather History Graph

Daily Weather History Graph

Search for Another Location

Airport:

Trip Planner

Search our weather history database for the weather conditions in past years. The results will help you decide how hot, cold, wet, or windy it might be!

Date:

Astronomy

Jul. 18, 2013 Rise Set
Actual Time 5:56 AM MDT 8:22 PM MDT
Civil Twilight 5:26 AM MDT 8:52 PM MDT
Nautical Twilight 4:49 AM MDT 9:29 PM MDT
Astronomical Twilight 4:08 AM MDT 10:09 PM MDT
Moon 4:22 PM MDT 1:48 AM MDT
Length of Visible Light 15h 25m
Length of Day
14h 25m
Waxing Gibbous, 78% of the Moon is Illuminated
Jul 18
Waxing Gibbous
Jul 22
Full
Jul 29
Last Quarter
Aug 6
New
Aug 14
First Quarter

Hourly Weather History & Observations

Time (MDT) Temp. Dew Point Humidity Pressure Visibility Wind Dir Wind Speed Gust Speed Precip Events Conditions
12:52 AM 57.9 °F 44.1 °F 60% 30.12 in 10.0 mi SE 6.9 mph - N/A   Clear
1:52 AM 55.9 °F 46.0 °F 69% 30.12 in 10.0 mi ESE 10.4 mph - N/A   Clear
2:52 AM 53.1 °F 46.9 °F 80% 30.12 in 10.0 mi East 6.9 mph - N/A   Clear
3:52 AM 50.0 °F 46.0 °F 86% 30.14 in 10.0 mi ESE 6.9 mph - N/A   Clear
4:52 AM 48.9 °F 45.0 °F 86% 30.14 in 10.0 mi SE 6.9 mph - N/A   Clear
5:52 AM 46.9 °F 44.1 °F 90% 30.15 in 10.0 mi SSW 5.8 mph - N/A   Clear
6:52 AM 53.1 °F 46.9 °F 80% 30.14 in 10.0 mi WNW 3.5 mph - N/A   Clear
7:52 AM 55.9 °F 46.0 °F 69% 30.14 in 10.0 mi Calm Calm - N/A   Clear
8:52 AM 60.1 °F 46.9 °F 62% 30.16 in 10.0 mi Calm Calm - N/A   Clear
9:52 AM 64.0 °F 46.9 °F 54% 30.13 in 10.0 mi Calm Calm - N/A   Clear
10:52 AM 69.1 °F 48.0 °F 47% 30.10 in 10.0 mi Calm Calm - N/A   Clear
11:52 AM 75.0 °F 46.9 °F 37% 30.06 in 10.0 mi Calm Calm - N/A   Clear
12:52 PM 78.1 °F 46.9 °F 33% 30.04 in 10.0 mi ENE 5.8 mph - N/A   Clear
1:52 PM 80.1 °F 48.0 °F 32% 30.01 in 10.0 mi East 9.2 mph - N/A   Clear
2:52 PM 82.9 °F 48.0 °F 29% 29.99 in 10.0 mi Variable 3.5 mph - N/A   Clear
3:52 PM 84.0 °F 44.1 °F 25% 29.96 in 10.0 mi Calm Calm - N/A   Scattered Clouds
4:00 PM 86.0 °F 44.6 °F 23% 30.25 in 10.0 mi NNE 5.8 mph - N/A Thunderstorm Scattered Clouds
4:41 PM 69.8 °F 53.6 °F 56% 30.25 in 6.0 mi ESE 29.9 mph 39.1 mph 0.00 in Rain Light Rain
4:52 PM 63.0 °F 54.0 °F 72% 30.06 in 4.0 mi SE 12.7 mph - 0.05 in Rain Rain
5:04 PM 66.2 °F 57.2 °F 73% 30.27 in 8.0 mi Calm Calm - 0.06 in Rain , Thunderstorm Light Thunderstorms and Rain
6:52 PM 69.1 °F 61.0 °F 75% 30.05 in 10.0 mi NE 3.5 mph - 0.07 in   Clear
7:52 PM 63.0 °F 53.1 °F 70% 30.09 in 10.0 mi North 12.7 mph 23.0 mph N/A   Mostly Cloudy
8:18 PM 62.6 °F 53.6 °F 72% 30.37 in 10.0 mi NNW 13.8 mph - N/A   Mostly Cloudy
8:52 PM 62.1 °F 52.0 °F 70% 30.13 in 10.0 mi NNW 18.4 mph 21.9 mph N/A   Clear
9:52 PM 60.1 °F 51.1 °F 72% 30.14 in 10.0 mi North 12.7 mph 18.4 mph N/A   Scattered Clouds
10:52 PM 60.1 °F 52.0 °F 75% 30.12 in 10.0 mi NNE 9.2 mph - N/A   Mostly Cloudy
11:52 PM 59.0 °F 51.1 °F 75% 30.09 in 10.0 mi Calm Calm - N/A   Scattered Clouds